GFSNIL_sfc_thetae_309.txt.gz
Theta_e
349 347 344 340 333 329 328 328 330 331 331 330 331 330 330 327 326 329 325 325 325 322
336 334 333 331 328 328 328 329 329 329 328 327 328 327 326 323 323 324 323 323 323 320
327 328 325 325 324 324 327 327 327 324 323 323 321 322 323 321 321 322 321 320 321 319
326 326 325 325 325 325 326 326 325 325 324 321 321 322 321 322 322 322 320 320 322 321
326 326 325 325 325 326 325 326 325 325 324 322 320 321 322 321 322 322 321 322 322 322
325 325 324 324 323 324 323 321 321 321 321 321 323 321 322 322 321 322 322 323 323 323
324 324 323 323 323 321 323 322 321 322 321 323 322 323 323 323 324 324 324 325 325 324
323 324 324 323 323 323 323 323 324 324 326 326 325 324 326 327 326 326 326 327 326 324
325 325 324 324 323 323 323 322 323 323 324 325 324 323 323 324 326 327 327 326 325 325
326 326 326 326 324 324 325 326 326 326 326 326 328 323 322 322 326 327 326 326 324 323
326 326 327 327 327 327 326 326 326 327 328 328 328 323 320 321 327 328 327 327 325 324
326 326 326 326 326 327 326 327 328 328 329 329 329 321 318 320 327 326 326 326 325 323
327 327 327 328 328 328 327 327 327 327 329 326 328 320 317 319 324 324 323 325 325 318
328 328 329 329 329 329 328 327 326 327 329 329 327 328 316 314 323 323 321 320 321 318

GFSNIL_sfc_thetae_315.txt.gz
Theta_e
345 341 338 331 328 328 339 340 337 334 333 334 332 330 329 329 329 336 332 333 334 328
339 339 339 335 335 329 328 328 327 326 324 326 324 323 325 325 323 326 333 330 331 328
332 332 334 334 331 327 328 325 324 319 319 321 324 323 323 325 330 330 329 329 328 332
334 334 333 330 329 328 326 326 324 321 322 325 324 324 324 328 327 327 329 332 333 332
333 332 330 328 327 327 325 324 324 325 326 323 323 325 325 325 325 326 325 330 328 330
332 330 328 326 325 325 325 327 325 325 324 323 323 323 325 327 325 327 328 329 330 331
331 328 326 328 325 324 325 325 326 325 325 325 325 327 327 328 328 330 330 332 332 332
333 334 332 330 327 325 325 324 325 325 326 326 325 324 327 328 330 332 331 332 333 332
334 333 330 329 327 327 328 329 330 329 328 328 327 325 326 326 324 327 328 330 332 332
332 330 330 330 329 328 329 331 330 330 330 330 330 326 324 327 328 327 327 329 330 329
332 331 331 330 330 331 330 330 330 330 331 330 329 326 323 327 331 329 331 333 335 333
331 330 330 329 329 331 331 333 329 331 334 332 333 324 322 326 331 328 332 333 336 335
331 330 329 330 331 333 334 332 327 329 332 327 332 324 319 324 328 327 324 330 331 327
331 331 331 332 332 331 331 332 331 331 334 334 332 334 319 317 330 325 322 320 321 323

GFSNIL_sfc_thetae_318.txt.gz
Theta_e
342 339 339 340 336 335 333 332 331 330 329 327 326 328 328 326 325 329 326 330 327 327
339 335 333 333 333 332 332 330 327 324 323 322 322 323 323 323 323 324 325 323 325 325
336 336 336 334 331 329 327 326 322 321 320 323 325 324 324 322 327 324 328 325 327 326
335 334 332 330 330 328 326 326 323 322 321 325 326 325 324 326 326 329 329 328 329 330
333 333 331 329 329 329 327 326 325 325 325 325 323 325 326 326 326 325 324 328 328 328
332 329 329 328 328 327 326 326 325 325 324 324 325 325 326 324 327 327 326 327 329 329
330 329 329 328 328 328 328 326 328 327 328 327 327 327 326 327 328 328 329 330 332 331
332 332 332 330 329 327 327 326 328 326 328 327 327 323 326 327 328 329 331 330 332 331
335 335 334 332 330 330 330 331 332 331 330 329 326 326 326 328 326 327 327 326 328 332
335 333 333 333 332 331 332 333 332 332 332 331 332 327 325 327 327 326 326 327 328 329
334 333 334 332 330 333 332 332 332 331 334 334 332 326 324 327 329 330 330 330 330 329
334 334 333 331 329 328 328 333 333 332 329 330 332 326 323 325 330 329 329 329 331 330
338 337 335 337 338 335 335 331 329 330 334 331 333 326 321 322 329 327 326 328 328 327
337 337 337 338 340 339 333 335 334 334 333 333 332 331 321 318 327 327 326 324 323 326

GFSNIL_sfc_thetae_321.txt.gz
Theta_e
337 336 337 334 335 334 333 331 331 327 324 322 322 323 322 321 322 322 321 321 322 323
334 333 332 332 332 330 329 326 324 323 319 319 321 321 321 320 319 322 323 324 324 323
332 332 330 329 327 326 324 321 320 318 318 322 322 322 323 322 320 321 322 321 320 321
332 331 330 327 324 323 322 320 319 318 319 322 322 322 321 323 323 323 324 318 320 325
331 329 327 327 327 328 326 323 320 320 321 321 320 320 322 321 323 320 320 320 322 322
329 327 326 326 327 325 323 321 321 321 320 320 319 320 319 319 319 319 319 320 322 322
328 327 326 325 323 322 322 320 319 319 319 319 318 318 317 318 319 320 322 323 324 325
328 326 326 323 322 321 319 319 318 317 317 317 319 322 318 320 319 320 321 324 324 324
329 326 324 323 319 318 317 318 317 317 318 319 324 325 326 323 319 319 318 317 318 321
326 324 322 320 319 318 319 320 321 321 321 321 322 326 324 327 318 317 317 317 318 321
324 323 323 322 321 320 321 321 320 321 322 322 324 326 324 325 320 318 320 321 322 321
324 324 323 322 321 323 324 321 323 321 320 319 321 323 323 321 319 320 321 323 324 323
325 323 322 321 321 322 321 320 322 323 323 323 322 322 320 319 319 319 320 319 320 324
323 321 321 321 323 322 320 320 320 321 322 323 323 323 320 318 319 321 319 319 319 319